Date,TemperatureHighF,TemperatureAvgF,TemperatureLowF,DewpointHighF,DewpointAvgF,DewpointLowF,HumidityHigh,HumidityAvg,HumidityLow,PressureMaxIn,PressureMinIn,WindSpeedMaxMPH,WindSpeedAvgMPH,GustSpeedMaxMPH,PrecipitationSumIn
2013-9-1,-200,0,200,-100,-100,-100,0,0,100,0.00,40.00,15,8,17,0.00
2013-9-2,-200,0,200,-100,-100,-100,0,0,100,0.00,40.00,17,9,22,0.00
2013-9-3,-200,0,200,-100,-100,-100,0,0,100,0.00,40.00,15,7,18,0.00
2013-9-4,-200,0,200,-100,-100,-100,0,0,100,0.00,40.00,16,8,22,0.00
2013-9-5,-200,0,200,-100,-100,-100,0,0,100,0.00,40.00,15,8,22,0.00
2013-9-6,-200,0,200,-100,-100,-100,0,0,100,0.00,40.00,23,14,26,0.00
2013-9-7,-200,0,200,-100,-100,-100,0,0,100,0.00,40.00,15,8,21,0.00
2013-9-8,-200,0,200,-100,-100,-100,0,0,100,0.00,40.00,29,15,33,0.00
2013-9-9,-200,0,200,-100,-100,-100,0,0,100,0.00,40.00,25,14,30,0.00
2013-9-10,-200,0,200,-100,-100,-100,0,0,100,0.00,40.00,20,12,25,0.00
2013-9-11,-200,0,200,-100,-100,-100,0,0,100,0.00,40.00,16,8,22,0.00
2013-9-12,-200,0,200,-100,-100,-100,0,0,100,0.00,40.00,21,10,28,0.00
2013-9-13,-200,0,200,-100,-100,-100,0,0,100,0.00,40.00,20,10,23,0.00
2013-9-14,-200,0,200,-100,-100,-100,0,0,100,0.00,40.00,29,13,32,0.00
2013-9-15,-200,0,200,-100,-100,-100,0,0,100,0.00,40.00,17,9,24,0.00
2013-9-16,-200,0,200,-100,-100,-100,0,0,100,0.00,40.00,23,12,30,0.00
2013-9-17,-200,0,200,-100,-100,-100,0,0,100,0.00,40.00,24,16,29,0.00
2013-9-18,-200,0,200,-100,-100,-100,0,0,100,0.00,40.00,18,11,21,0.00
2013-9-19,-200,0,200,-100,-100,-100,0,0,100,0.00,40.00,23,14,26,0.00
2013-9-20,-200,0,200,-100,-100,-100,0,0,100,0.00,40.00,16,9,25,0.00
2013-9-21,-200,0,200,-100,-100,-100,0,0,100,0.00,40.00,17,10,23,0.00
2013-9-22,-200,0,200,-100,-100,-100,0,0,100,0.00,40.00,13,5,15,0.00
2013-9-23,-200,0,200,-100,-100,-100,0,0,100,0.00,40.00,15,10,18,0.00
2013-9-24,-200,0,200,-100,-100,-100,0,0,100,0.00,40.00,16,8,21,0.00
2013-9-25,-200,0,200,-100,-100,-100,0,0,100,0.00,40.00,11,7,13,0.00
2013-9-26,-200,0,200,-100,-100,-100,0,0,100,0.00,40.00,13,8,14,0.00
2013-9-27,-200,0,200,-100,-100,-100,0,0,100,0.00,40.00,17,8,21,0.00
2013-9-28,-200,0,200,-100,-100,-100,0,0,100,0.00,40.00,24,16,29,0.00
2013-9-29,-200,0,200,-100,-100,-100,0,0,100,0.00,40.00,14,6,16,0.00
2013-9-30,-200,0,200,-100,-100,-100,0,0,100,0.00,40.00,21,10,24,0.00